"Pseudo-MPEC" for P11VpiK

Created 2024 Jun 15 10:22:07 UT using Find_Orb

Click here for an explanation of pseudo-MPECs

 
 Astrometry: 
     P11VpiK* C2024 06 11_y7v#+Z:wb`;:UXj$9$/+vSsKO\YXA2oqNMVbgTJMI?\'/`AgJLWF51
     P11VpiK  C2024 06 11CW)%ja1qP^Nm%\=R_\ifE)a3ShQ0BNBKSffSiw$s5,@:B^G't6H@F51
     P11VpiK  C2024 06 11?c-MQ87Mf3RssLCJ*p`77T3O!;Ik=Ce*82B)_b=l[qea:5Fdu]!PF51
     P11VpiK  C2024 06 11J*+eTw(Qb/\TuX]ZATLV%krs'^VU9,%D8kRiM)Q6e_1xvF?+LO0GF51
     P11VpiK  C2024 06 11*yeBU@5bYTE1CroNc43N2cN+n![%s(cLH_'BtCB.wAst:hW#i+5SF51
     P11VpiK KB2024 06 11ZAG5Vb8C4:(;]W9Ye6!8eo'AL^11MEH?Z$v=C01n]?(/]:NRupX3958
     P11VpiK KB2024 06 11[iaS5crIhrF_pVpv6?3UG5e^)96YcHFD7-wqJ*9vPRl`HhwA!,Bj958
     P11VpiK KB2024 06 11qNepaN-MVoJ6@N@YKJe=eg`/;HQ,@24_(u3G(`WQemq9h*lo\W]v958
     P11VpiK 1C2024 06 11.97958 17 53 44.78 +23 48 43.7    ~6BNq 21.2 VXNEOCP033
     P11VpiK 1C2024 06 11.98043 17 53 44.70 +23 48 45.1    ~6BNq 21.0 VXNEOCP033
     P11VpiK 1C2024 06 11.98129 17 53 44.63 +23 48 46.3    ~6BNq 20.7 VXNEOCP033
     P11VpiK 1C2024 06 11.98226 17 53 44.54 +23 48 47.6    ~6BNq 21.0 VXNEOCP033
     P11VpiK KC2024 06 12sl7vwwpc1Ul,hmiOJ@:q8-9BL,8b=O8kuOgLM]6^8(Euh/y.#pe0H21
     P11VpiK KB2024 06 12.21528 17 53 24.564+23 54 42.77   ~6C5q 20.3 RZNEOCPH36
     P11VpiK KB2024 06 12.23108 17 53 22.994+23 55 07.03   ~6C5q 20.4 RZNEOCPH36
     P11VpiK KC2024 06 12C7Astrometryp5S3kX9tEeG\!`t]_U2Me[B\6aF3xp+)@PbY$axDH21
     P11VpiK KC2024 06 12Tfrk%M$RlCgh%#O%j'ulfY2puEt\DZx@SiEZGQksnJvw*AXY3x8nH21
     P11VpiK KC2024 06 12gEi$CC^uredacted;dkecLf;R14!6dR@+1ysclsXY!7bDv]bAmCAH21
     P11VpiK KC2024 06 12.25884117 53 20.660+23 55 49.50   ~6C7b       VNEOCPI52
     P11VpiK KC2024 06 12.26487017 53 20.130+23 55 59.20   ~6C7b 20.81GVNEOCPI52
     P11VpiK 1C2024 06 12./!DMSd3,\d%:clickCwo5_m1wVRS\PW_@U)m.H'ffcPkWMCLb\?658
     P11VpiK 1C2024 06 12MYOZgeZ=B4i,0Q.j2t1u$,+EXH(Ru;[/\GCCWV`FJxJn0D%`\F.[658
     P11VpiK 1C2024 06 12Y0=1+3l;om^I7pQB!nmIYkOsH1?0lx@0cKC0@lWYnOByEn1J'WS%658
     P11VpiK 1C2024 06 12ds50LUt5ZqyUdWh%q%@YdR)kc\kh?Wekf_WZUu7w!nWuewUO)^Al658
     P11VpiK 1C2024 06 12uf4O+k:vWTWX17g,(eaxYtDoONygok5luq`q):(;%?(1!mL'DtK:658
     P11VpiK 3C2024 06 12Iy9jH^-8dS369^s.g43`ybdKbkJ\pd_J#OhereL;6diwp)\i7##$T14
     P11VpiK 3C2024 06 12c?#K])gNS#EqINlui(`oL7?UM.FP1$:+(?heaqdp5'?cM:,/T[lAT14
     P11VpiK 3C2024 06 12j?*6Joodw]CbD:Z/dIj)2=wLRtbDpR=TCgI8+J5CGQg;1P%4@.F7T14
     P11VpiK KB2024 06 13.01698417 52 13.69 +24 14 54.4    ~6D17 20.0 GXNEOCPI93
     P11VpiK KB2024 06 13.02675317 52 12.84 +24 15 08.8    ~6D17       XNEOCPI93
     P11VpiK KB2024 06 13.03358717 52 12.21 +24 15 18.8    ~6D17 20.4 GXNEOCPI93
     P11VpiK KC2024 06 13+7m5=XSq!t@mZD\#k3j,xu12os2-Y+KpR+,o=9@?g`fG_I$P\o75H21
     P11VpiK KC2024 06 13DH!9v4FUsK%KVettX:mFTYG9\LDsu[.?]/2YwYhp^nAo3;Cl/j8dH21
     P11VpiK KC2024 06 13#9W`e!Y:\g3@PFSN%Bx=j@2#5UoyEa=#!tc@forvB[2cnRm:`us\H21
     P11VpiK KC2024 06 13t7n#)]3S\2ny5ItxjJt%\7Mi+h)Z;eT,kH0N,C[hUPBESpwC@rVcH21
     P11VpiK KC2024 06 15PEH()3m]@8,PglMZ\,V'`L%]lQ`#:6c.+lAx)ak5kX[r4UAL\'y;H21
     P11VpiK KC2024 06 15El$Haexplanation:KJ0pDby_Si+eJ#@2AmIFd@k1Enr9sB)l:kEH21
     P11VpiK KC2024 06 15SEh8dmpd3(+ZQ-Z(LMM@E@9A6vg*A2^f!P+HFo5O!pb*vjV#qP8CH21
     P11VpiK  C2024 06 15wN?dYaQq',G2TH\iQ]91yD.jTe;+hS(e\*o=[@DgA1uimd@*XR):F52
     P11VpiK  C2024 06 15M0%CoGPx3fq[qR!oswnfM2a1Dmoav1@?hJXU62Lr)XMy+JYykaeRF52
     P11VpiK 1C2024 06 15.35717017 48 40.162+25 12 50.47   ~6F9M 20.66GVNEOCPG96
     P11VpiK  C2024 06 15r0yAd`u7Vna4#xGOJ*aw)lH=Em$eEPODr9^65d'k3iYjgZt7e[hHF52
     P11VpiK 1C2024 06 15.36843917 48 39.071+25 13 06.82   ~6F9M 20.65GVNEOCPG96
     P11VpiK 1C2024 06 15.37407117 48 38.531+25 13 15.02   ~6F9M 20.58GVNEOCPG96

Station data:
(033) Karl Schwarzschild Observatory, Tautenburg  (N50.980139 E11.711240)
   Germany.  Observer B. Stecklum. 1.34-m f/3 Schmidt + CCD.
(658) Dominion Astrophysical Observatory  (N48.519984 W123.417000)
   Canada/BritColumbia.  Observer D. D. Balam. Measurers D. D. Balam, D. W.
   E. Green, C. E. Spratt. 1.82-m reflector + CCD.
(958) Observatoire de Dax  (N43.693381 W1.030530)  France.  Observer P.
   Dupouy. 0.32-m Schmidt-Cassegrain.
(F51) Pan-STARRS 1, Haleakala  (N20.707234 W156.255910)  US/Hawaii.
   Observers J. Bulger, T. Lowe, A. Schultz, M. Willman. Measurers K.
   Chambers, S. Chastel, T. de Boer, L. Denneau, J. Fairlamb, H. Flewelling,
   M. Huber, C.-C. Lin, E. Magnier, Y. Ramanjooloo, R. Wainscoat, R. Weryk.
   1.8-m Ritchey-Chrétien + CCD.
(F52) Pan-STARRS 2, Haleakala  (N20.707382 W156.255910)  US/Hawaii.
   Observers J. Bulger, T. Dukes, T. Lowe, A. Schultz, M. Willman. Measurers
   K. Chambers, S. Chastel, T. de Boer, L. Denneau, J. Fairlamb, H.
   Flewelling, M. Huber, C.-C. Lin, E. Magnier, Y. Ramanjooloo, R. Wainscoat,
   R. Weryk. 1.8-m Ritchey-Chrétien + CCD.
(G96) Mt. Lemmon Survey  (N32.442729 W110.788720)  US/Arizona.  Observer E.
   J. Christensen. 1.5-m reflector + 10K CCD.
(H21) Astronomical Research Observatory, Westfield  (N39.483054 W87.968270)
   US/Illinois.  Observer R. Holmes. Measurers S. Foglia, L. Buzzi, T.
   Linder, R. Holmes. 0.76-m f/3.0 astrograph + CCD0.81-m f/4.0 astrograph +
   CCD0.61-m f/4.5 astrograph + CCD0.40-m f/5.32 astrograph + CCD.
(H36) Sandlot Observatory, Scranton  (N38.797718 W95.706550)  US/Kansas.
   Observer G. Hug. 0.56-m reflector + CCD.
(I52) Steward Observatory, Mt. Lemmon Station  (N32.442570 W110.788920)
   US/Arizona.  Observers T. A. Pruyne, B. M. Africano, E. J. Christensen, G.
   A. Farneth, D. C. Fuls, A. R. Gibbs, A. D. Grauer, H. Gröller, J. A.
   Johnson, R. A. Kowalski, S. M. Larson, G. J. Leonard, D. Rankin, R. L.
   Seaman, F. C. Shelly, K. W. Wierzchoś. 1.0-m prime focus + CCD.
(I93) St Pardon de Conques  (N44.558670 W0.202960)  France.  Observers F.
   Losse, W. D'Anna. Measurer F. Losse. 0.40-m f/3.7 reflector + CCD.
(T14) Mauna Kea-UH/Tholen NEO Follow-Up (CFHT)  (N19.825252 W155.468876)
   US/Hawaii.  Observer R. Weryk. 3.6-m Canada-France-Hawaii Telescope.

Orbital elements:  P11VpiK
   Perihelion 2024 Oct 30.38598 +/- 0.263 TT =  9:15:48 (JD 2460613.88598)
Epoch 2024 Jun 15.0 TT = JDT 2460476.5   Earth MOID: 0.1284      AutoNEOCP
M 330.09835379 +/- 0.25             (J2000 ecliptic)
n   0.21764700 +/- 0.00203          Peri.  162.51061 +/- 0.23
a   2.73716463 +/- 0.017            Node   221.84970 +/- 0.25
e   0.6919039 +/- 0.0018            Incl.   35.23838 +/- 0.18
P   4.53                   H 18.00  G  0.15   U  8.6
q 0.84330969 +/- 0.00148    Q 4.63101956 +/- 0.0335
From 44 observations 2024 June 11-15; mean residual 0".32
Residuals in arcseconds: 
240611 F51  .01+  .03+    240612 H21  .30-  .04+    240613 I93  .05+  .34-    
240611 F51  .06+  .06-    240612 H21  .01+  .05+    240613 H21  .02+  .10-    
240611 F51  .05-  .03-    240612 H21  .02+  .50+    240613 H21  .20-  .23-    
240611 F51  .02+  .14+    240612 I52  .26-  .42-    240613 H21  .15-  .04+    
240611 F51  .07-  .07+    240612 I52  .10-  .10+    240613 H21  .17-  .29+    
240611 958  .63+  .02-    240612 658  .68+  .37+    240615 H21  .09+  .00     
240611 958  .25-  .43-    240612 658  .61+  .45+    240615 H21  .25-  .15-    
240611 958  .61-  1.1-    240612 658  .52+  .47+    240615 H21  .32-  .18+    
240611 033  .16-  .03+    240612 658  .50+  .31+    240615 F52  .01-  .03+    
240611 033  .22-  .14+    240612 658  .55+  .25+    240615 F52  .05+  .01+    
240611 033  .14-  .03+    240612 T14  .01-  .01+    240615 G96  .04+  .02+    
240611 033  .19-  .14-    240612 T14  .01-  .02-    240615 F52  .03+  .02-    
240612 H21  .10-  .36+    240612 T14  .01-  .00     240615 G96  .02-  .07-    
240612 H36  1.3+  .25-    240613 I93  .45-  .24+    240615 G96  .02+  .08-    
240612 H36  .78-  .06-    240613 I93  .13+  .06-    

Ephemerides (geocentric):
Date (UTC) HH   RA             Dec           delta  r     elong  mag " sig PA
---- --------  ------------   ------------  ------ ------ -----  --- --------
2024 06 15 10  17 48 34.712   +25 14 18.52  1.1433 1.9680 131.3 20.8 .048  60
2024 06 15 11  17 48 30.809   +25 15 19.44  1.1430 1.9677 131.3 20.8 .053  60
2024 06 15 12  17 48 26.903   +25 16 20.33  1.1427 1.9673 131.3 20.8 .059  59
2024 06 15 13  17 48 22.994   +25 17 21.18  1.1424 1.9669 131.3 20.8 .064  59
2024 06 15 14  17 48 19.081   +25 18 21.99  1.1421 1.9665 131.3 20.8 .070  58
2024 06 15 15  17 48 15.165   +25 19 22.78  1.1418 1.9661 131.3 20.8 .076  58
2024 06 15 16  17 48 11.245   +25 20 23.53  1.1415 1.9658 131.3 20.8 .082  57
2024 06 15 17  17 48 07.322   +25 21 24.25  1.1412 1.9654 131.2 20.8 .088  57
2024 06 15 18  17 48 03.396   +25 22 24.93  1.1410 1.9650 131.2 20.8 .094  57
2024 06 15 19  17 47 59.467   +25 23 25.58  1.1407 1.9646 131.2 20.8 .100  57
2024 06 15 20  17 47 55.534   +25 24 26.19  1.1404 1.9642 131.2 20.8 .106  56
2024 06 15 21  17 47 51.598   +25 25 26.77  1.1401 1.9639 131.2 20.8 .113  56
2024 06 15 22  17 47 47.659   +25 26 27.32  1.1398 1.9635 131.2 20.8 .119  56
2024 06 15 23  17 47 43.717   +25 27 27.83  1.1395 1.9631 131.1 20.8 .126  56
2024 06 16 00  17 47 39.771   +25 28 28.31  1.1392 1.9627 131.1 20.8 .133  56
2024 06 16 01  17 47 35.822   +25 29 28.75  1.1389 1.9623 131.1 20.8 .140  55
2024 06 16 02  17 47 31.870   +25 30 29.16  1.1387 1.9619 131.1 20.8 .147  55
2024 06 16 03  17 47 27.914   +25 31 29.54  1.1384 1.9616 131.1 20.8 .154  55
2024 06 16 04  17 47 23.955   +25 32 29.88  1.1381 1.9612 131.1 20.8 .162  55
2024 06 16 05  17 47 19.993   +25 33 30.18  1.1378 1.9608 131.1 20.8 .169  55
2024 06 16 06  17 47 16.028   +25 34 30.45  1.1375 1.9604 131.0 20.8 .177  55
2024 06 16 07  17 47 12.059   +25 35 30.68  1.1372 1.9600 131.0 20.8 .184  55
2024 06 16 08  17 47 08.087   +25 36 30.88  1.1370 1.9597 131.0 20.8 .192  55
2024 06 16 09  17 47 04.112   +25 37 31.05  1.1367 1.9593 131.0 20.8 .200  54
2024 06 16 10  17 47 00.134   +25 38 31.18  1.1364 1.9589 131.0 20.8 .208  54
2024 06 16 11  17 46 56.153   +25 39 31.27  1.1361 1.9585 131.0 20.8 .216  54
2024 06 16 12  17 46 52.168   +25 40 31.33  1.1358 1.9581 130.9 20.8 .224  54
2024 06 16 13  17 46 48.180   +25 41 31.35  1.1355 1.9577 130.9 20.8 .233  54
2024 06 16 14  17 46 44.189   +25 42 31.34  1.1353 1.9574 130.9 20.8 .241  54
2024 06 16 15  17 46 40.195   +25 43 31.29  1.1350 1.9570 130.9 20.8 .250  54
2024 06 16 16  17 46 36.197   +25 44 31.21  1.1347 1.9566 130.9 20.8 .259  54
2024 06 16 17  17 46 32.196   +25 45 31.08  1.1344 1.9562 130.9 20.8 .267  54
2024 06 16 18  17 46 28.192   +25 46 30.93  1.1341 1.9558 130.8 20.8 .276  54
2024 06 16 19  17 46 24.185   +25 47 30.74  1.1339 1.9555 130.8 20.8 .285  54
2024 06 16 20  17 46 20.175   +25 48 30.51  1.1336 1.9551 130.8 20.8 .295  53
2024 06 16 21  17 46 16.162   +25 49 30.24  1.1333 1.9547 130.8 20.8 .304  53
2024 06 16 22  17 46 12.145   +25 50 29.94  1.1330 1.9543 130.8 20.8 .313  53
2024 06 16 23  17 46 08.125   +25 51 29.60  1.1327 1.9539 130.8 20.8 .323  53
2024 06 17 00  17 46 04.102   +25 52 29.23  1.1325 1.9535 130.7 20.8 .333  53
2024 06 17 01  17 46 00.076   +25 53 28.82  1.1322 1.9532 130.7 20.8 .342  53
2024 06 17 02  17 45 56.047   +25 54 28.37  1.1319 1.9528 130.7 20.8 .352  53
2024 06 17 03  17 45 52.015   +25 55 27.89  1.1316 1.9524 130.7 20.8 .362  53
2024 06 17 04  17 45 47.979   +25 56 27.37  1.1314 1.9520 130.7 20.8 .372  53
2024 06 17 05  17 45 43.941   +25 57 26.81  1.1311 1.9516 130.7 20.8 .383  53
2024 06 17 06  17 45 39.899   +25 58 26.22  1.1308 1.9512 130.6 20.8 .393  53
2024 06 17 07  17 45 35.854   +25 59 25.58  1.1305 1.9509 130.6 20.8 .403  53
2024 06 17 08  17 45 31.806   +26 00 24.91  1.1303 1.9505 130.6 20.8 .414  53
2024 06 17 09  17 45 27.755   +26 01 24.21  1.1300 1.9501 130.6 20.8 .425  53